DW9657 Weather Reports


time (UTC)temp
C
wind
direction
speed
KPH
gust
KPH
rain 1hr
cm
rain 24hr
cm
rain mn
cm
humidity
%
barometer
mb
20260504110328 10 225 4.8 14.5 0.00 0.00 0.00 86 1006.4
20260504100327 10 227 6.4 14.5 0.00 0.00 0.00 85 1006.0
20260504081832 10 220 6.4 14.5 0.00 0.00 0.00 84 1006.5
20260504081350 10 235 6.4 12.9 0.00 0.00 0.00 84 1006.6
20260504080832 10 222 6.4 12.9 0.00 0.00 0.00 84 1006.7
20260504080354 10 220 6.4 11.3 0.00 0.00 0.00 84 1006.7
20260504070327 10 235 4.8 12.9 0.00 0.00 0.00 82 1007.4
20260504050333 10 227 3.2 9.7 0.00 0.00 0.00 82 1009.2
20260504045828 10 239 4.8 9.7 0.00 0.00 0.00 82 1009.1
20260504045332 10 243 3.2 8.0 0.00 0.00 0.00 82 1009.2
20260504044827 10 227 3.2 8.0 0.00 0.00 0.00 82 1009.3
20260504044330 10 237 3.2 8.0 0.00 0.00 0.00 82 1009.3
20260504043827 10 237 3.2 8.0 0.00 0.00 0.00 82 1009.4
20260504043329 10 233 3.2 8.0 0.00 0.00 0.00 82 1009.4
20260504042827 10 232 1.6 8.0 0.00 0.00 0.00 81 1009.4
20260504042331 10 233 1.6 6.4 0.00 0.00 0.00 81 1009.5
20260504041846 10 227 3.2 4.8 0.00 0.00 0.00 82 1009.6
20260504041330 10 188 3.2 6.4 0.00 0.00 0.00 81 1009.6
20260504040856 10 232 3.2 6.4 0.00 0.00 0.00 82 1009.7
20260504040352 10 222 1.6 4.8 0.00 0.00 0.00 82 1009.8
20260504035834 10 235 1.6 4.8 0.00 0.00 0.00 82 1009.9
20260504035332 10 216 1.6 8.0 0.00 0.00 0.00 82 1009.8
20260504034834 10 210 1.6 8.0 0.00 0.00 0.00 82 1010.0
20260504034332 10 227 1.6 4.8 0.00 0.00 0.00 83 1010.1
20260504033835 10 158 1.6 4.8 0.00 0.00 0.00 83 1010.1
20260504033331 10 187 1.6 4.8 0.00 0.00 0.00 83 1010.2
20260504032835 10 227 1.6 4.8 0.00 0.00 0.00 83 1010.2
20260504032330 10 190 0.0 4.8 0.00 0.00 0.00 83 1010.2
20260504031855 10 181 1.6 4.8 0.00 0.00 0.00 83 1010.2
20260504031356 10 205 1.6 3.2 0.00 0.00 0.00 83 1010.3
20260504030831 10 217 0.0 6.4 0.00 0.00 0.00 83 1010.3
20260504030335 10 175 1.6 8.0 0.00 0.00 0.00 83 1010.4
20260504025830 10 146 1.6 8.0 0.00 0.00 0.00 83 1010.3
20260504025353 10 236 1.6 6.4 0.00 0.00 0.00 83 1010.4
20260504024829 10 216 1.6 6.4 0.00 0.00 0.00 83 1010.5
20260504024353 10 231 1.6 6.4 0.00 0.00 0.00 83 1010.5
20260504023837 10 227 1.6 4.8 0.00 0.00 0.00 82 1010.5
20260504023331 10 189 1.6 8.0 0.00 0.00 0.00 82 1010.7
20260504022829 10 226 3.2 8.0 0.00 0.00 0.00 82 1010.7
20260504022334 10 227 0.0 4.8 0.00 0.00 0.00 82 1010.7
20260504021856 10 223 1.6 6.4 0.00 0.00 0.00 81 1010.7
20260504021331 10 228 1.6 6.4 0.00 0.00 0.00 81 1010.6
20260504020855 10 210 1.6 6.4 0.00 0.00 0.00 81 1010.6
20260504020400 10 227 4.8 8.0 0.00 0.00 0.00 80 1010.6
20260504015900 11 229 4.8 8.0 0.00 0.00 0.00 80 1010.6
20260504015351 11 220 4.8 8.0 0.00 0.00 0.00 80 1010.6
20260504014834 11 228 4.8 8.0 0.00 0.00 0.00 79 1010.6
20260504014331 11 224 3.2 8.0 0.00 0.00 0.00 79 1010.6
20260504013835 11 227 3.2 8.0 0.00 0.00 0.00 79 1010.6
20260504013317 11 225 3.2 9.7 0.00 0.00 0.00 79 1010.5
20260504012835 11 224 4.8 9.7 0.00 0.00 0.00 78 1010.6
20260504012331 11 223 4.8 14.5 0.00 0.00 0.00 77 1010.6
20260504011854 11 216 8.0 16.1 0.00 0.00 0.00 76 1010.7
20260504011334 11 210 8.0 16.1 0.00 0.00 0.00 76 1010.7
20260504010830 11 220 8.0 16.1 0.00 0.00 0.00 76 1010.7
20260504010333 11 218 9.7 22.5 0.00 0.00 0.00 75 1010.7
20260504005829 11 218 11.3 22.5 0.00 0.00 0.00 75 1010.8
20260504005332 11 210 11.3 20.9 0.00 0.00 0.00 75 1010.8
20260504004836 11 222 9.7 24.1 0.00 0.00 0.00 75 1010.8
20260504004333 11 224 12.9 24.1 0.00 0.00 0.00 74 1010.8
20260504003855 12 220 11.3 20.9 0.00 0.00 0.00 74 1010.8
20260504003332 12 235 14.5 22.5 0.00 0.00 0.00 72 1010.8
20260504002835 12 229 14.5 25.7 0.00 0.00 0.00 71 1010.7
20260504002332 12 241 17.7 29.0 0.00 0.00 0.00 70 1010.7
20260504001836 12 227 17.7 29.0 0.00 0.00 0.00 71 1010.6
20260504001333 12 227 16.1 25.7 0.00 0.00 0.00 71 1010.7
20260504000835 12 222 17.7 25.7 0.00 0.00 0.00 71 1010.6
20260504000331 12 222 14.5 30.6 0.00 0.00 0.00 71 1010.5
20260503235855 12 235 17.7 30.6 0.00 0.00 0.00 70 1010.4
20260503235332 12 235 17.7 25.7 0.00 0.00 0.00 69 1010.4
20260503234837 13 210 16.1 25.7 0.00 0.00 0.00 69 1010.3
20260503234359 13 222 16.1 25.7 0.00 0.00 0.00 68 1010.1
20260503233834 13 231 17.7 24.1 0.00 0.00 0.00 67 1010.1
20260503233319 13 216 16.1 24.1 0.00 0.00 0.00 68 1010.1
20260503232834 13 219 12.9 19.3 0.00 0.00 0.00 68 1010.0
20260503232339 13 216 12.9 19.3 0.00 0.00 0.00 67 1010.0
20260503231836 13 224 12.9 20.9 0.00 0.00 0.00 68 1010.0
20260503231339 13 217 11.3 17.7 0.00 0.00 0.00 68 1010.0
20260503230836 13 210 11.3 19.3 0.00 0.00 0.00 68 1010.0
20260503230340 13 214 12.9 19.3 0.00 0.00 0.00 68 1010.1
20260503225837 13 222 11.3 19.3 0.00 0.00 0.00 68 1010.0
20260503225333 13 231 9.7 24.1 0.00 0.00 0.00 67 1010.1
20260503224835 13 231 12.9 24.1 0.00 0.00 0.00 66 1010.1
20260503224331 13 210 14.5 20.9 0.00 0.00 0.00 66 1010.1
20260503223835 13 210 12.9 20.9 0.00 0.00 0.00 66 1010.2
20260503223338 13 210 12.9 19.3 0.00 0.00 0.00 67 1010.2
20260503222833 13 227 12.9 17.7 0.00 0.00 0.00 67 1010.2
20260503222330 13 221 12.9 17.7 0.00 0.00 0.00 66 1010.2
20260503221834 13 220 12.9 19.3 0.00 0.00 0.00 66 1010.3
20260503221331 13 220 9.7 19.3 0.00 0.00 0.00 67 1010.3
20260503220834 13 221 11.3 16.1 0.00 0.00 0.00 66 1010.3
20260503220331 13 222 11.3 16.1 0.00 0.00 0.00 66 1010.4
20260503215834 14 220 11.3 16.1 0.00 0.00 0.00 65 1010.4
20260503215331 14 228 11.3 19.3 0.00 0.00 0.00 64 1010.4
20260503214835 14 214 12.9 19.3 0.00 0.00 0.00 64 1010.3
20260503214331 14 205 11.3 16.1 0.00 0.00 0.00 64 1010.3
20260503213834 14 210 11.3 20.9 0.00 0.00 0.00 65 1010.2
20260503213357 14 215 12.9 20.9 0.00 0.00 0.00 64 1010.3
20260503212901 14 216 11.3 19.3 0.00 0.00 0.00 64 1010.4
20260503212336 14 229 11.3 20.9 0.00 0.00 0.00 63 1010.4
20260503211856 14 218 12.9 20.9 0.00 0.00 0.00 62 1010.5
20260503211330 15 205 11.3 17.7 0.00 0.00 0.00 62 1010.4
20260503210834 15 224 12.9 20.9 0.00 0.00 0.00 62 1010.4
20260503210332 15 218 12.9 22.5 0.00 0.00 0.00 62 1010.4
20260503205835 15 220 12.9 22.5 0.00 0.00 0.00 62 1010.4
20260503205332 15 221 11.3 20.9 0.00 0.00 0.00 62 1010.5
20260503204828 15 218 14.5 20.9 0.00 0.00 0.00 59 1010.5
20260503204352 15 210 9.7 17.7 0.00 0.00 0.00 63 1010.5
20260503203834 15 218 9.7 19.3 0.00 0.00 0.00 62 1010.7
20260503203330 15 214 14.5 20.9 0.00 0.00 0.00 61 1010.7
20260503202834 15 205 11.3 20.9 0.00 0.00 0.00 62 1010.7
20260503202331 15 224 12.9 16.1 0.00 0.00 0.00 63 1010.7
20260503201827 15 222 11.3 19.3 0.00 0.00 0.00 63 1010.9
20260503201331 15 229 11.3 20.9 0.00 0.00 0.00 63 1010.8
20260503200833 15 220 11.3 20.9 0.00 0.00 0.00 64 1011.0
20260503200330 14 216 11.3 19.3 0.00 0.00 0.00 65 1011.1
20260503195833 14 214 11.3 19.3 0.00 0.00 0.00 64 1011.1
20260503195349 14 222 12.9 17.7 0.00 0.00 0.00 64 1011.2
20260503194852 15 218 9.7 17.7 0.00 0.00 0.00 63 1011.2
20260503194333 15 219 11.3 17.7 0.00 0.00 0.00 63 1011.3
20260503193832 15 219 11.3 17.7 0.00 0.00 0.00 64 1011.3
20260503193335 15 210 9.7 20.9 0.00 0.00 0.00 62 1011.4
20260503192831 15 214 11.3 20.9 0.00 0.00 0.00 61 1011.3
20260503192335 15 231 12.9 20.9 0.00 0.00 0.00 60 1011.5
20260503191833 15 232 12.9 25.7 0.00 0.00 0.00 61 1011.6
20260503191335 15 216 12.9 25.7 0.00 0.00 0.00 59 1011.7
20260503190831 15 233 12.9 24.1 0.00 0.00 0.00 60 1011.7
20260503190334 15 214 12.9 24.1 0.00 0.00 0.00 62 1011.8
20260503185831 15 218 12.9 20.9 0.00 0.00 0.00 61 1011.9
20260503185336 15 217 12.9 19.3 0.00 0.00 0.00 61 1012.0
20260503184834 15 229 11.3 20.9 0.00 0.00 0.00 62 1012.1
20260503184338 15 210 11.3 19.3 0.00 0.00 0.00 60 1012.1
20260503183833 15 218 12.9 19.3 0.00 0.00 0.00 60 1012.1
20260503183330 15 215 12.9 20.9 0.00 0.00 0.00 61 1012.2
20260503182834 15 214 12.9 20.9 0.00 0.00 0.00 61 1012.3
20260503182331 14 222 9.7 17.7 0.00 0.00 0.00 62 1012.4
20260503181835 14 219 9.7 19.3 0.00 0.00 0.00 64 1012.5
20260503181333 14 218 11.3 27.4 0.00 0.00 0.00 60 1012.6
20260503180836 14 222 14.5 27.4 0.00 0.00 0.00 57 1012.7
20260503180333 14 214 16.1 20.9 0.00 0.00 0.00 57 1012.8
20260503175834 14 232 12.9 24.1 0.00 0.00 0.00 60 1012.8
20260503175351 14 220 16.1 24.1 0.00 0.00 0.00 58 1012.9
20260503174833 13 210 14.5 20.9 0.00 0.00 0.00 60 1012.9
20260503174335 13 234 12.9 22.5 0.00 0.00 0.00 61 1013.0
20260503173851 13 222 12.9 22.5 0.00 0.00 0.00 59 1013.0
20260503173334 13 222 11.3 22.5 0.00 0.00 0.00 61 1013.0
20260503172831 13 210 14.5 20.9 0.00 0.00 0.00 60 1013.1
20260503172336 13 214 11.3 22.5 0.00 0.00 0.00 62 1013.1
20260503171833 13 241 14.5 22.5 0.00 0.00 0.00 62 1013.3
20260503171337 13 218 11.3 25.7 0.00 0.00 0.00 64 1013.2
20260503170832 13 218 14.5 25.7 0.00 0.00 0.00 64 1013.4
20260503170336 13 223 11.3 20.9 0.00 0.00 0.00 63 1013.4
20260503150847 11 214 12.9 19.3 0.00 0.00 0.00 71 1014.2
20260503150349 10 229 9.7 20.9 0.00 0.00 0.00 72 1014.4
20260503131333 8 224 12.9 24.1 0.00 0.00 0.00 70 1014.7
20260503130827 7 224 11.3 20.9 0.00 0.00 0.00 71 1014.7
20260503130351 7 230 12.9 24.1 0.00 0.00 0.00 70 1014.7